Location: ???????????
(54.5822°N, 39.1075°E)
Time: 13:57:37
(UTC+00:00)

Iridium 4 Rocket - Pass Details

Date: 19 May 2025
Orbit: 582 x 886 km, 86.9° (Epoch: 20 June)

Event Time Altitude Azimuth Distance (km) Brightness Sun altitude
Rises 18:17:48 0° 354° (N) 3,115 7.7 -5.9°
Reaches altitude 10° 18:20:01 10° 351° (N) 2,237 6.9 -6.1°
Maximum altitude 18:24:59 65° 271° (W) 852 4.0 -6.6°
Drops below altitude 10° 18:30:21 10° 190° (S) 2,414 5.7 -7.1°
Sets 18:32:49 0° 188° (S) 3,381 6.4 -7.4°
